Weather History for Lisbon, Portugal

Change the Weather History Date:

Sunday, December 9, 2012

  Actual Average Record
Temperature  
Mean Temperature 50 °F -  
Max Temperature 55 °F 57 °F 68 °F (2010)
Min Temperature 44 °F 46 °F 35 °F (2013)
Degree Days  
Heating Degree Days 16    
Moisture  
Dew Point 45 °F    
Average Humidity 89    
Maximum Humidity 100    
Minimum Humidity 76    
Precipitation  
Precipitation 0.00 in - - ()
Sea Level Pressure  
Sea Level Pressure 30.25 in    
Wind  
Wind Speed 6 mph ()    
Max Wind Speed 9 mph    
Max Gust Speed 20 mph    
Visibility 6.2 miles    
Events      
Averages and records for this station are not official NWS values.
T = Trace of Precipitation, MM = Missing Value Source: Averaged Metar Reports

Daily Weather History Graph

Daily Weather History Graph

Search for Another Location

Airport:

Trip Planner

Search our weather history database for the weather conditions in past years. The results will help you decide how hot, cold, wet, or windy it might be!

Date:

Astronomy

Dec. 09, 2012 Rise Set
Actual Time 7:43 AM WET 5:14 PM WET
Civil Twilight 7:13 AM WET 5:44 PM WET
Nautical Twilight 6:40 AM WET 6:17 PM WET
Astronomical Twilight 6:07 AM WET 6:50 PM WET
Moon 3:02 AM WET (12/9) 2:11 PM WET (12/9)
Length of Visible Light 10h 30m
Length of Day
9h 31m
Waning Crescent, 20% of the Moon is Illuminated
Dec 9
Waning Crescent
Dec 13
New
Dec 20
First Quarter
Dec 28
Full
Jan 5
Last Quarter

Hourly Weather History & Observations

Time (WET) Temp. Windchill Dew Point Humidity Pressure Visibility Wind Dir Wind Speed Gust Speed Precip Events Conditions
12:00 AM 48.2 °F - 48.2 °F 100% 30.27 in 5.6 mi NE 5.8 mph - N/A   Partly Cloudy
12:30 AM 46.4 °F 42.9 °F 46.4 °F 100% 30.27 in 5.6 mi ENE 6.9 mph - N/A   Partly Cloudy
1:00 AM 46.4 °F 42.9 °F 46.4 °F 100% 30.27 in 6.2 mi ENE 6.9 mph - N/A   Partly Cloudy
1:30 AM 46.4 °F 43.5 °F 46.4 °F 100% 30.24 in 6.2 mi ENE 5.8 mph - N/A   Partly Cloudy
2:00 AM 46.4 °F 42.4 °F 44.6 °F 93% 30.24 in 6.2 mi ENE 8.1 mph - N/A   Partly Cloudy
2:30 AM 44.6 °F 41.4 °F 44.6 °F 100% 30.27 in 6.2 mi NE 5.8 mph - N/A   Partly Cloudy
3:00 AM 44.6 °F 41.4 °F 44.6 °F 100% 30.24 in 6.2 mi NE 5.8 mph - N/A   Partly Cloudy
3:30 AM 44.6 °F 41.4 °F 44.6 °F 100% 30.24 in - NE 5.8 mph - N/A   Clear
4:00 AM 44.6 °F 40.7 °F 44.6 °F 100% 30.24 in - NE 6.9 mph - N/A   Clear
4:30 AM 44.6 °F 40.2 °F 44.6 °F 100% 30.24 in 6.2 mi ENE 8.1 mph - N/A   Partly Cloudy
5:00 AM 44.6 °F 40.7 °F 44.6 °F 100% 30.24 in 6.2 mi NE 6.9 mph - N/A   Partly Cloudy
5:30 AM 44.6 °F 41.4 °F 44.6 °F 100% 30.24 in 6.2 mi ENE 5.8 mph - N/A   Partly Cloudy
6:00 AM 44.6 °F 40.2 °F 42.8 °F 93% 30.24 in 6.2 mi ENE 8.1 mph - N/A   Partly Cloudy
6:30 AM 44.6 °F 40.2 °F 42.8 °F 93% 30.24 in 6.2 mi ENE 8.1 mph - N/A   Partly Cloudy
7:00 AM 44.6 °F 39.7 °F 42.8 °F 93% 30.24 in 6.2 mi ENE 9.2 mph - N/A   Partly Cloudy
7:30 AM 44.6 °F 39.7 °F 42.8 °F 93% 30.27 in 6.2 mi ENE 9.2 mph - N/A   Partly Cloudy
8:00 AM 44.6 °F 39.7 °F 42.8 °F 93% 30.27 in 6.2 mi ENE 9.2 mph - N/A   Partly Cloudy
8:30 AM 44.6 °F 39.7 °F 42.8 °F 93% 30.27 in 6.2 mi ENE 9.2 mph - N/A   Partly Cloudy
9:00 AM 44.6 °F 40.2 °F 42.8 °F 93% 30.27 in 6.2 mi ENE 8.1 mph - N/A   Partly Cloudy
9:30 AM 46.4 °F 42.9 °F 44.6 °F 93% 30.27 in 6.2 mi ENE 6.9 mph - N/A   Partly Cloudy
10:00 AM 46.4 °F 42.4 °F 44.6 °F 93% 30.30 in 6.2 mi ENE 8.1 mph - N/A   Partly Cloudy
10:30 AM 48.2 °F - 44.6 °F 87% 30.30 in 6.2 mi ENE 8.1 mph - N/A   Partly Cloudy
11:00 AM 48.2 °F - 46.4 °F 93% 30.30 in 6.2 mi East 8.1 mph - N/A   Partly Cloudy
11:30 AM 50.0 °F - 46.4 °F 87% 30.27 in 6.2 mi ENE 8.1 mph - N/A   Partly Cloudy
12:00 PM 50.0 °F - 46.4 °F 87% 30.27 in 6.2 mi ENE 8.1 mph - N/A   Partly Cloudy
12:30 PM 50.0 °F - 46.4 °F 87% 30.27 in 6.2 mi ENE 6.9 mph - N/A   Partly Cloudy
1:00 PM 51.8 °F - 46.4 °F 82% 30.27 in 6.2 mi East 6.9 mph - N/A   Partly Cloudy
1:30 PM 51.8 °F - 46.4 °F 82% 30.24 in - East 6.9 mph 18.4 mph N/A   Clear
2:00 PM 51.8 °F - 46.4 °F 82% 30.24 in - East 5.8 mph - N/A   Clear
2:30 PM 53.6 °F - 46.4 °F 77% 30.24 in - East 5.8 mph - N/A   Clear
3:00 PM 53.6 °F - 48.2 °F 82% 30.24 in - East 5.8 mph - N/A   Clear
3:30 PM 55.4 °F - 48.2 °F 77% 30.24 in 6.2 mi ENE 6.9 mph - N/A   Partly Cloudy
4:00 PM 53.6 °F - 46.4 °F 77% 30.24 in 6.2 mi ENE 6.9 mph - N/A   Partly Cloudy
4:30 PM 53.6 °F - 46.4 °F 77% 30.24 in - ENE 5.8 mph - N/A   Clear
5:00 PM 51.8 °F - 46.4 °F 82% 30.24 in - ENE 4.6 mph - N/A   Clear
5:30 PM 51.8 °F - 46.4 °F 82% 30.24 in - ENE 4.6 mph - N/A   Clear
6:00 PM 51.8 °F - 46.4 °F 82% 30.24 in - ENE 5.8 mph - N/A   Clear
6:30 PM 51.8 °F - 46.4 °F 82% 30.21 in - ENE 5.8 mph - N/A   Clear
7:00 PM 51.8 °F - 44.6 °F 76% 30.24 in - NE 4.6 mph - N/A   Clear
7:30 PM 51.8 °F - 44.6 °F 76% 30.24 in - NE 5.8 mph - N/A   Clear
8:00 PM 50.0 °F - 46.4 °F 87% 30.24 in - NNE 4.6 mph - N/A   Clear
8:30 PM 50.0 °F - 44.6 °F 82% 30.24 in - NE 5.8 mph - N/A   Clear
9:00 PM 50.0 °F - 46.4 °F 87% 30.24 in - NE 4.6 mph - N/A   Clear
9:30 PM 50.0 °F - 44.6 °F 82% 30.24 in - NNE 6.9 mph 19.6 mph N/A   Clear
10:00 PM 51.8 °F - 44.6 °F 76% 30.24 in - NE 8.1 mph - N/A   Clear
10:30 PM 50.0 °F - 44.6 °F 82% 30.24 in - ENE 4.6 mph - N/A   Clear
11:00 PM 48.2 °F - 44.6 °F 87% 30.24 in - ENE 5.8 mph - N/A   Clear
11:30 PM 46.4 °F 45.2 °F 44.6 °F 93% 30.24 in - NE 3.5 mph - N/A   Clear